EN

Hourly Weather Barstow

Today, 18 January, Monday

Time Temperature Precipitation Wind Pressure Humidity
00:00 +14°C° 0 mm 1 mps 700 mmHg 26%
01:00 +13°C° 0 mm 1 mps 700 mmHg 27%
02:00 +13°C° 0 mm 1 mps 700 mmHg 28%
03:00 +13°C° 0 mm 1 mps 699 mmHg 29%
04:00 +12°C° 0 mm 1 mps 699 mmHg 31%
05:00 +12°C° 0 mm 1 mps 699 mmHg 32%
06:00 +11°C° 0 mm 1 mps 699 mmHg 34%
07:00 +11°C° 0 mm 1 mps 699 mmHg 35%
08:00 +14°C° 0 mm 2 mps 700 mmHg 30%
09:00 +15°C° 0 mm 4 mps 701 mmHg 25%
10:00 +19°C° 0 mm 5 mps 701 mmHg 20%
11:00 +19°C° 0 mm 5 mps 701 mmHg 19%
12:00 +20°C° 0 mm 6 mps 700 mmHg 19%
13:00 +20°C° 0 mm 6 mps 699 mmHg 18%
14:00 +20°C° 0 mm 6 mps 699 mmHg 17%
15:00 +20°C° 0 mm 5 mps 699 mmHg 16%
16:00 +20°C° 0 mm 4 mps 698 mmHg 14%
17:00 +18°C° 0 mm 3 mps 698 mmHg 16%
18:00 +16°C° 0 mm 2 mps 698 mmHg 18%
19:00 +14°C° 0 mm 2 mps 698 mmHg 19%
20:00 +14°C° 0 mm 2 mps 698 mmHg 19%
21:00 +13°C° 0 mm 2 mps 698 mmHg 19%
22:00 +12°C° 0 mm 2 mps 698 mmHg 19%
23:00 +11°C° 0 mm 4 mps 698 mmHg 19%

Tomorrow, 19 January, Tuesday

Time Temperature Precipitation Wind Pressure Humidity
00:00 +9°C° 0 mm 5 mps 698 mmHg 19%
01:00 +9°C° 0 mm 6 mps 698 mmHg 19%
02:00 +8°C° 0 mm 6 mps 698 mmHg 23%
03:00 +7°C° 0 mm 6 mps 698 mmHg 28%
04:00 +5°C° 0 mm 6 mps 698 mmHg 32%
05:00 +5°C° 0 mm 5 mps 698 mmHg 32%
06:00 +5°C° 0 mm 5 mps 699 mmHg 32%
07:00 +5°C° 0 mm 5 mps 699 mmHg 33%
08:00 +5°C° 0 mm 6 mps 700 mmHg 30%
09:00 +6°C° 0 mm 7 mps 700 mmHg 28%
10:00 +7°C° 0 mm 8 mps 701 mmHg 26%
11:00 +8°C° 0 mm 9 mps 701 mmHg 26%
12:00 +8°C° 0 mm 9 mps 701 mmHg 26%
13:00 +9°C° 0 mm 10 mps 700 mmHg 27%
14:00 +11°C° 0 mm 10 mps 701 mmHg 26%
15:00 +11°C° 0 mm 10 mps 701 mmHg 25%
16:00 +12°C° 0 mm 10 mps 701 mmHg 24%
17:00 +11°C° 0 mm 9 mps 701 mmHg 27%
18:00 +11°C° 0 mm 8 mps 702 mmHg 30%
19:00 +10°C° 0 mm 6 mps 702 mmHg 32%
20:00 +9°C° 0 mm 6 mps 702 mmHg 36%
21:00 +9°C° 0 mm 5 mps 703 mmHg 39%
22:00 +8°C° 0 mm 4 mps 703 mmHg 43%
23:00 +8°C° 0 mm 4 mps 703 mmHg 42%

Day after tomorrow, 20 January, Wednesday

Time Temperature Precipitation Wind Pressure Humidity
00:00 +8°C° 0 mm 3 mps 703 mmHg 42%
01:00 +8°C° 0 mm 3 mps 703 mmHg 41%
02:00 +8°C° 0 mm 3 mps 703 mmHg 41%
03:00 +7°C° 0 mm 3 mps 703 mmHg 41%
04:00 +7°C° 0 mm 3 mps 703 mmHg 42%
05:00 +7°C° 0 mm 2 mps 703 mmHg 41%
06:00 +7°C° 0 mm 2 mps 704 mmHg 41%
07:00 +7°C° 0 mm 2 mps 704 mmHg 41%
08:00 +8°C° 0 mm 3 mps 704 mmHg 37%
09:00 +10°C° 0 mm 3 mps 705 mmHg 34%
10:00 +12°C° 0 mm 4 mps 705 mmHg 30%
11:00 +13°C° 0 mm 5 mps 705 mmHg 30%
12:00 +14°C° 0 mm 6 mps 704 mmHg 31%
13:00 +16°C° 0 mm 6 mps 704 mmHg 31%
14:00 +16°C° 0 mm 6 mps 703 mmHg 32%
15:00 +16°C° 0 mm 6 mps 703 mmHg 32%
16:00 +16°C° 0 mm 6 mps 703 mmHg 33%
17:00 +15°C° 0 mm 5 mps 703 mmHg 36%
18:00 +13°C° 0 mm 4 mps 703 mmHg 39%
19:00 +12°C° 0 mm 3 mps 703 mmHg 42%
20:00 +12°C° 0 mm 3 mps 703 mmHg 43%
21:00 +11°C° 0 mm 3 mps 703 mmHg 44%
22:00 +11°C° 0 mm 3 mps 703 mmHg 45%
23:00 +11°C° 0 mm 3 mps 703 mmHg 47%

21 January, Thursday

Time Temperature Precipitation Wind Pressure Humidity
00:00 +10°C° 0 mm 3 mps 702 mmHg 49%
01:00 +10°C° 0 mm 3 mps 702 mmHg 51%
02:00 +9°C° 0 mm 2 mps 702 mmHg 56%
03:00 +9°C° 0 mm 2 mps 701 mmHg 61%
04:00 +9°C° 0 mm 1 mps 701 mmHg 66%
05:00 +9°C° 0 mm 1 mps 701 mmHg 69%
06:00 +8°C° 0 mm 1 mps 701 mmHg 73%
07:00 +7°C° 0 mm 0 mps 701 mmHg 77%
08:00 +9°C° 0 mm 0 mps 701 mmHg 69%
09:00 +11°C° 0 mm 0 mps 702 mmHg 62%
10:00 +13°C° 0 mm 0 mps 702 mmHg 55%
11:00 +14°C° 0 mm 0 mps 702 mmHg 52%
12:00 +16°C° 0 mm 1 mps 701 mmHg 49%
13:00 +18°C° 0 mm 1 mps 701 mmHg 46%
14:00 +17°C° 0 mm 2 mps 700 mmHg 43%
15:00 +18°C° 0 mm 2 mps 700 mmHg 41%
16:00 +18°C° 0 mm 3 mps 700 mmHg 39%
17:00 +17°C° 0 mm 3 mps 700 mmHg 43%
18:00 +14°C° 0 mm 3 mps 700 mmHg 47%
19:00 +14°C° 0 mm 2 mps 700 mmHg 50%
20:00 +13°C° 0 mm 3 mps 700 mmHg 51%
21:00 +12°C° 0 mm 3 mps 700 mmHg 53%
22:00 +12°C° 0 mm 3 mps 700 mmHg 54%
23:00 +11°C° 0 mm 4 mps 699 mmHg 56%

22 January, Friday

Time Temperature Precipitation Wind Pressure Humidity
00:00 +11°C° 0 mm 4 mps 699 mmHg 58%
01:00 +10°C° 0 mm 4 mps 699 mmHg 60%
02:00 +10°C° 0 mm 4 mps 699 mmHg 61%
03:00 +10°C° 0 mm 4 mps 698 mmHg 63%
04:00 +10°C° 0 mm 4 mps 698 mmHg 64%
05:00 +9°C° 0 mm 3 mps 698 mmHg 65%
06:00 +9°C° 0 mm 3 mps 698 mmHg 66%
07:00 +9°C° 0 mm 3 mps 698 mmHg 67%
08:00 +10°C° 0 mm 4 mps 699 mmHg 60%
09:00 +12°C° 0 mm 4 mps 699 mmHg 53%
10:00 +13°C° 0 mm 5 mps 699 mmHg 46%
11:00 +14°C° 0 mm 6 mps 698 mmHg 42%
12:00 +15°C° 0 mm 6 mps 698 mmHg 39%
13:00 +15°C° 0 mm 7 mps 697 mmHg 36%
14:00 +15°C° 0 mm 8 mps 697 mmHg 38%
15:00 +15°C° 0 mm 9 mps 696 mmHg 41%
16:00 +13°C° 0 mm 10 mps 696 mmHg 43%
17:00 +12°C° 0 mm 9 mps 696 mmHg 49%
18:00 +11°C° 0 mm 8 mps 696 mmHg 54%
19:00 +10°C° 0 mm 8 mps 696 mmHg 60%
20:00 +9°C° 0 mm 7 mps 696 mmHg 63%
21:00 +8°C° 0 mm 7 mps 696 mmHg 66%
22:00 +8°C° 0 mm 6 mps 696 mmHg 69%
23:00 +7°C° 0 mm 6 mps 696 mmHg 70%

23 January, Saturday

Time Temperature Precipitation Wind Pressure Humidity
00:00 +7°C° 0 mm 5 mps 696 mmHg 71%
01:00 +6°C° 0 mm 5 mps 696 mmHg 72%
02:00 +6°C° 0.1 mm 4 mps 696 mmHg 76%
03:00 +6°C° 0.1 mm 4 mps 695 mmHg 79%
04:00 +5°C° 0.1 mm 3 mps 695 mmHg 83%
05:00 +5°C° 0 mm 3 mps 696 mmHg 83%
06:00 +6°C° 0 mm 2 mps 696 mmHg 83%
07:00 +5°C° 0 mm 2 mps 696 mmHg 83%
08:00 +7°C° 0 mm 3 mps 696 mmHg 74%
09:00 +7°C° 0 mm 4 mps 697 mmHg 65%
10:00 +8°C° 0 mm 4 mps 697 mmHg 56%
11:00 +9°C° 0.1 mm 5 mps 697 mmHg 53%
12:00 +9°C° 0.1 mm 5 mps 696 mmHg 50%
13:00 +10°C° 0.1 mm 6 mps 696 mmHg 47%
14:00 +10°C° 0 mm 6 mps 696 mmHg 47%
15:00 +9°C° 0 mm 6 mps 696 mmHg 47%
16:00 +9°C° 0 mm 6 mps 695 mmHg 48%
17:00 +8°C° 0 mm 6 mps 696 mmHg 53%
18:00 +7°C° 0 mm 5 mps 696 mmHg 58%
19:00 +6°C° 0 mm 5 mps 696 mmHg 64%
20:00 +6°C° 0 mm 5 mps 696 mmHg 66%
21:00 +5°C° 0 mm 4 mps 697 mmHg 69%
22:00 +5°C° 0 mm 4 mps 697 mmHg 71%
23:00 +5°C° 0 mm 4 mps 697 mmHg 73%
Show more

We Need Your Consent

Meteoprog and our Service Providers may store and access personal data such as cookies, device identifiers or other similar technologies on your device and process such data to personalise content and ads, as well as provide social media features and to analyse the traffic.

  • Store and/or access information on your device

    Cookies, device identifiers or other information can be stored or accessed on your device for the purposes indicated above.

  • Personalised ads and content, ad and content measurement, audience insights, and products development

    Ads and content can be personalised based on a profile. More data can be added to better personalise ads and content. Ad and content performance can be measured. Insights about the audience who saw the ads and content can be derived. Such data can be used to develop or improve user’s experience, systems and software.

By clicking ‘I Agree’ you will allow the use of indicated cookies, device identifiers, web beacons or other similar technologies. Your settings can be changed in the browser on your device.

For certain purposes, legitimate interests may be relied on, rather than consent. You can read more about this in our Privacy and Cookie Policy.